{"data":{"norad_id":68820,"intl_designator":"2026-089U","name":"STARLINK-37470","alt_names":[],"object_type":"PAYLOAD","status":"ACTIVE","operator":null,"country":"US","launch_date":"2026-04-23","launch_site_code":"AFWTR","launch_vehicle":null,"mission":null,"orbit_class":"UNKNOWN","rcs_meters":null,"size_class":null,"mass_kg":null,"dimensions":null,"purposes":["comms"],"wikipedia_slug":null,"has_3d_model":false,"image_url":null,"decayed_at":null,"tle_current":{"epoch":"2026-09-19T20:35:33.908640Z","epoch_age_seconds":95580,"freshness":"FRESH","line1":"1 68820U 26089U   26262.85803135  .00017953  00000+0  55731-3 0  9998","line2":"2 68820  97.2858 108.6754 0003018  84.2468 275.9119 15.33430491 23169","mean_motion":15.33430491,"eccentricity":0.0003018,"inclination_deg":97.2858,"raan_deg":108.6754,"arg_perigee_deg":84.2468,"mean_anomaly_deg":275.9119,"bstar":0.00055731,"rev_number":2316,"period_min":93.907093177789,"perigee_km":463.52090768952,"apogee_km":467.65177909959,"semimajor_km":6843.7233433946,"source":"CELESTRAK","updated_at":"2026-09-20T09:00:44.011048Z"}}}